Temp
69 72 71 69 71 55 56 62 56 62 63 61 54 48 47 48 46 43 43 51 52 56 62 68 67 70 73 74 76 78 78 79 79 79 79 79 80 81 81 81 81 80 81 81 81 82 82 82 81 80 79 79 79 79 78 77 77 78 77 78 78 78 78
67 72 74 71 74 64 59 56 61 62 67 65 57 46 46 46 39 40 42 51 49 54 54 57 65 65 70 71 73 77 78 79 78 79 78 79 80 81 81 81 81 82 82 81 82 83 83 83 82 81 80 80 80 80 79 78 78 77 78 78 78 78 78
68 68 69 65 70 71 69 62 67 66 47 50 47 49 45 40 41 39 42 45 51 51 53 55 63 64 67 69 70 73 75 76 77 79 79 79 80 81 80 81 80 81 81 82 82 83 84 84 82 82 82 82 81 81 81 81 79 79 79 80 79 79 79
65 67 66 56 62 67 70 65 65 63 58 52 47 52 41 48 38 41 42 47 52 53 56 58 66 67 69 70 70 71 75 77 78 79 81 80 79 79 81 81 82 82 83 83 84 84 84 84 83 83 83 83 82 82 81 80 81 80 79 79 79 78 79
64 57 60 62 63 61 61 60 59 59 61 58 63 53 57 49 38 38 43 45 47 47 56 64 66 68 70 71 71 72 75 77 79 80 81 81 80 80 81 81 82 82 83 84 84 85 85 85 85 85 85 83 83 83 82 82 80 80 80 80 79 79 79
55 57 65 69 69 69 65 64 61 63 59 53 49 46 51 50 47 39 39 48 50 49 60 66 67 68 72 72 72 72 74 76 77 79 81 81 81 80 81 82 83 84 83 84 85 85 85 85 85 84 84 84 83 82 83 82 82 81 81 80 79 79 79
57 61 67 73 75 73 71 68 64 65 59 53 50 41 48 50 52 49 46 43 57 60 65 66 69 68 69 71 72 73 75 75 78 79 82 80 79 80 81 82 84 84 83 83 84 83 83 83 83 84 83 84 83 83 83 83 82 82 83 82 81 79 79
58 63 62 65 66 71 67 67 68 65 62 63 62 60 47 52 46 50 48 46 50 54 61 67 70 69 70 69 69 72 75 75 77 78 79 79 79 79 81 82 83 83 84 82 81 81 81 81 81 82 83 83 83 83 84 84 82 82 82 82 82 80 79
50 56 58 59 61 64 61 63 66 67 67 66 62 54 46 51 51 54 48 49 52 63 57 60 61 62 68 70 70 69 72 72 73 75 76 77 77 77 76 77 80 81 82 79 79 80 79 80 82 82 82 82 83 83 84 84 83 84 83 82 82 81 80
40 40 43 43 48 55 56 58 65 67 67 64 59 58 50 49 48 51 49 51 40 48 53 64 64 62 62 65 64 66 68 70 73 73 73 71 72 73 74 75 77 78 79 79 79 79 79 80 82 80 80 82 83 83 83 85 84 83 83 83 82 81 81
41 44 43 50 54 51 57 60 61 64 67 69 67 60 53 53 42 50 54 50 52 60 65 63 66 62 66 70 66 66 69 70 70 69 70 72 72 74 75 75 78 78 77 78 78 78 80 82 81 82 82 82 83 81 82 84 84 83 82 82 80 80 80
46 50 50 54 54 50 52 56 61 63 64 65 64 60 57 51 48 51 53 45 58 58 61 62 62 63 62 64 64 66 65 67 70 70 67 72 71 71 72 73 75 76 77 78 78 78 80 80 81 82 82 83 82 81 82 83 84 84 83 81 79 79 80
49 51 51 54 53 54 55 57 60 62 63 63 62 62 56 59 60 57 55 48 55 56 59 63 64 67 70 71 71 71 69 66 64 65 68 70 72 73 73 73 74 76 77 77 77 78 79 80 80 81 82 82 81 81 82 82 84 83 82 80 79 80 79
47 50 51 53 52 53 55 56 59 63 65 63 65 65 62 62 62 63 58 50 59 63 64 64 66 66 69 67 64 64 65 69 70 69 67 71 72 72 73 73 75 76 78 77 77 78 78 79 79 81 80 80 81 81 81 82 81 82 81 80 79 79 79
44 49 52 53 53 51 50 55 58 61 64 67 67 66 65 62 62 64 58 51 56 61 62 72 71 64 63 64 65 68 66 66 68 67 69 69 70 72 72 72 74 76 77 77 77 77 77 78 79 80 80 80 81 83 82 81 80 81 82 80 79 79 79
40 47 49 50 52 52 51 52 55 58 60 60 65 63 65 60 58 58 59 54 55 59 59 62 65 62 63 68 69 63 62 64 65 66 69 70 70 71 73 74 74 75 77 76 76 77 79 80 80 80 79 80 80 81 81 81 82 82 82 81 80 79 80
34 46 48 49 49 50 51 56 60 60 61 63 65 67 65 68 67 61 58 62 62 64 64 64 68 68 65 63 61 59 58 58 60 65 68 70 70 69 69 72 74 76 78 79 77 79 81 81 81 82 82 81 79 80 80 81 81 81 81 82 80 79 79
35 45 46 48 43 37 48 57 63 65 63 63 60 63 63 65 69 69 70 70 68 67 62 65 68 69 67 62 60 62 61 59 60 60 63 66 68 69 71 72 75 75 75 78 80 80 80 81 83 84 83 82 82 82 82 81 80 80 79 80 80 79 79
34 42 44 39 36 43 53 59 63 62 66 66 65 66 64 64 66 68 66 64 65 67 69 70 72 65 61 61 62 62 64 60 60 61 62 62 63 64 67 70 73 73 74 74 75 77 79 81 82 82 81 82 81 79 80 80 80 79 80 79 79 79 79
40 37 35 31 36 47 56 60 58 59 63 64 64 64 67 64 65 66 66 66 68 67 67 65 61 61 63 62 63 63 64 64 63 64 63 64 65 65 65 65 67 69 74 75 77 77 80 79 79 81 82 82 80 79 80 80 80 80 79 79 79 79 79
33 34 35 39 48 50 52 50 51 52 49 48 49 49 61 64 60 62 65 65 64 63 61 61 61 62 63 62 63 65 65 64 65 65 65 65 65 65 66 67 66 66 69 74 77 77 77 77 78 80 80 80 79 79 79 80 79 79 79 78 78 79 79
43 38 34 35 35 35 40 49 54 58 59 57 55 50 51 57 61 65 68 67 65 58 58 60 62 62 67 61 64 65 64 66 66 66 65 66 66 66 66 67 67 68 67 68 73 77 76 77 78 78 79 78 77 76 77 78 78 78 78 79 79 79 79
39 38 33 32 33 38 46 49 54 57 59 59 55 51 51 56 58 58 64 69 64 60 61 61 61 65 64 59 61 62 63 65 66 65 65 66 66 66 66 66 67 67 68 67 71 74 74 76 76 78 78 78 77 77 77 79 80 79 78 79 79 79 79
41 38 35 34 40 43 48 52 55 57 60 58 55 46 48 54 57 59 60 64 63 62 64 64 64 68 62 62 64 63 64 64 65 65 64 64 64 66 66 67 68 68 68 70 70 71 73 74 74 76 78 77 77 78 78 79 79 78 79 79 80 81 80
44 44 39 40 44 50 52 54 57 59 60 56 50 46 51 55 57 60 61 64 64 65 64 65 66 59 62 63 63 65 65 65 64 66 66 65 65 65 66 66 68 67 68 67 67 67 67 68 72 76 76 76 75 76 76 76 77 79 80 80 80 79 79
42 43 40 40 44 49 54 57 58 60 56 45 43 53 57 57 59 61 60 62 62 64 65 63 62 61 64 65 66 65 65 64 64 65 65 66 66 67 67 67 67 67 67 67 67 68 67 68 69 73 75 75 74 74 74 75 77 80 80 79 78 78 79
46 44 39 37 33 46 56 56 56 58 49 48 54 55 58 60 62 61 60 61 61 63 61 62 62 63 64 64 64 64 64 65 64 64 65 64 65 65 66 66 67 67 66 66 66 67 67 68 68 68 72 74 74 74 74 75 76 78 78 78 78 78 78
39 40 38 38 47 51 57 55 48 53 54 56 57 56 54 61 62 60 60 62 63 64 63 62 62 62 62 62 63 64 64 64 65 65 66 66 66 67 67 67 67 67 66 66 66 66 67 67 68 68 68 69 70 72 72 69 71 76 77 77 77 77 77
47 43 46 52 52 54 57 56 55 57 59 59 58 57 57 56 57 59 60 61 63 64 63 62 62 61 63 63 64 63 63 64 65 65 65 66 66 66 65 65 67 67 66 66 66 66 66 67 68 68 68 67 68 68 67 69 70 71 73 75 76 76 77
54 54 54 54 54 54 55 58 59 57 58 59 59 58 57 58 59 59 58 62 63 64 64 62 62 62 63 63 63 64 64 64 65 65 65 66 66 66 66 66 66 66 66 66 66 66 66 67 67 68 68 68 68 68 68 69 70 71 72 73 74 75 77
48 42 54 53 53 55 56 56 58 60 60 58 59 58 58 59 59 59 60 60 61 63 64 63 62 62 63 62 62 63 63 64 64 64 64 65 65 65 64 65 66 66 66 66 66 66 65 66 67 68 68 68 68 68 68 69 70 71 71 72 72 73 74
46 45 53 54 56 55 57 55 54 55 56 58 58 60 60 60 61 60 60 60 60 62 62 62 61 61 62 61 61 62 62 62 63 64 64 64 64 65 66 66 67 66 66 65 65 65 65 66 66 67 67 67 68 68 68 69 69 70 70 70 71 72 72
51 54 55 55 55 56 56 57 57 56 57 57 57 58 59 60 60 59 60 61 59 60 61 62 62 61 61 62 62 62 62 62 63 63 63 64 64 65 65 66 66 66 66 66 66 66 66 66 67 67 67 68 68 67 67 68 68 68 69 69 70 71 71
46 47 50 54 48 48 52 55 56 57 58 58 57 57 57 57 57 58 58 59 61 61 61 61 62 60 60 62 63 62 62 62 63 64 64 64 65 65 66 66 66 66 67 66 66 65 65 66 66 67 67 68 68 68 67 67 68 68 68 68 68 69 69
45 52 55 55 55 53 54 55 56 58 58 58 56 55 55 56 57 57 58 57 57 58 60 61 62 61 61 62 63 62 62 62 63 63 64 63 63 63 64 64 64 64 65 66 65 65 65 65 66 66 67 67 68 68 67 67 66 65 66 66 65 65 66
51 56 56 56 54 52 54 56 57 57 58 57 57 57 57 56 57 57 57 57 56 57 59 60 61 61 62 63 63 62 62 63 63 63 64 64 63 63 63 63 63 63 63 64 64 64 65 65 65 66 67 67 67 68 67 67 66 66 65 64 64 64 65
51 56 57 56 56 56 57 57 57 58 59 58 56 57 57 56 57 58 57 57 57 57 57 58 60 61 60 61 62 62 62 62 63 63 63 63 64 63 63 63 62 62 63 63 64 64 65 65 65 66 66 67 68 68 68 67 67 66 65 65 64 64 64
MSLP
1002.18 1002.06 1002.26 1003.14 1002.82 1008.66 1006.78 1007.14 1008.86 1006.30 1004.90 1007.22 1009.02 1009.98 1009.98 1010.38 1011.46 1011.10 1008.74 1007.34 1006.66 1004.14 1002.70 1000.82 1001.38 1001.66 1001.34 1001.26 1001.26 1001.22 1001.10 1000.82 1000.74 1001.10 1001.26 1001.46 1001.58 1001.74 1001.98 1002.22 1002.42 1002.66 1003.02 1003.38 1003.50 1003.78 1004.14 1004.46 1004.94 1005.22 1005.26 1005.42 1005.78 1006.22 1006.82 1007.30 1007.58 1007.90 1008.26 1008.42 1008.74 1009.10 1009.46
1002.14 1000.90 1001.14 1002.10 1002.06 1002.90 1006.30 1008.02 1005.86 1004.78 1003.98 1005.30 1008.30 1011.98 1010.22 1010.74 1012.58 1010.74 1008.94 1008.34 1006.94 1006.38 1006.30 1001.70 1001.94 1002.66 1001.70 1001.86 1001.42 1001.02 1000.74 1000.50 1000.98 1000.82 1000.74 1000.74 1000.82 1000.66 1000.58 1000.86 1001.22 1001.66 1002.06 1002.38 1002.62 1002.82 1003.10 1003.50 1003.86 1004.26 1004.50 1004.66 1005.02 1005.50 1005.98 1006.58 1007.14 1007.62 1007.70 1007.98 1008.38 1008.66 1009.10
1001.50 1001.42 1001.94 1003.30 1002.42 1001.50 1003.50 1004.46 1002.78 1005.82 1010.14 1010.22 1008.50 1009.38 1012.58 1012.82 1012.30 1011.18 1008.50 1008.06 1006.78 1005.50 1004.90 1003.42 1002.86 1002.82 1002.06 1001.66 1001.34 1001.30 1001.18 1000.90 1000.74 1000.34 999.98 999.94 999.90 1000.42 1001.06 1001.22 1001.42 1001.70 1001.90 1002.02 1002.18 1002.30 1002.30 1002.58 1002.86 1003.22 1003.54 1004.02 1004.58 1005.10 1005.38 1005.78 1006.34 1006.42 1006.74 1007.22 1007.70 1008.18 1008.58
1001.42 1001.94 1002.62 1006.58 1004.86 1002.82 1002.34 1002.50 1004.06 1003.26 1004.66 1007.34 1009.42 1008.18 1008.58 1009.02 1011.26 1011.06 1009.74 1008.02 1007.26 1003.74 1003.02 1001.62 1001.38 1001.30 1000.74 1000.82 1001.06 1000.94 1000.38 1000.06 999.86 999.62 999.34 999.30 999.70 1000.02 999.94 1000.18 1000.42 1000.58 1000.74 1000.90 1001.14 1001.50 1001.90 1002.18 1002.62 1002.90 1003.34 1003.78 1004.34 1004.50 1004.94 1005.34 1005.62 1006.10 1006.78 1007.34 1007.66 1008.06 1008.14
1001.86 1004.78 1003.26 1004.14 1003.90 1005.06 1005.10 1004.94 1005.18 1005.26 1004.62 1004.30 1004.70 1006.82 1006.82 1008.30 1009.82 1010.06 1009.82 1009.62 1005.38 1003.02 1000.94 1000.14 999.78 999.62 999.90 999.94 1000.14 1000.02 999.58 999.10 998.78 998.50 998.34 998.42 998.74 999.10 999.14 999.26 999.50 999.78 1000.10 1000.30 1000.50 1000.66 1000.90 1001.14 1001.50 1002.06 1002.74 1003.34 1003.50 1003.82 1004.46 1004.82 1005.42 1005.86 1006.38 1006.62 1007.02 1007.34 1007.70
1004.14 1003.02 1001.54 1001.10 1001.78 1002.06 1003.06 1003.90 1004.78 1004.30 1005.54 1006.74 1008.46 1008.98 1006.46 1006.26 1007.58 1008.70 1009.34 1008.50 1004.50 1000.50 1000.50 999.06 998.70 998.18 998.78 999.02 999.30 999.46 999.18 998.78 998.50 998.22 997.94 997.70 998.10 998.26 998.50 998.66 998.78 999.14 999.42 999.70 999.86 1000.14 1000.54 1001.14 1001.58 1002.10 1002.38 1002.82 1003.26 1003.70 1003.86 1004.22 1004.74 1005.34 1005.74 1006.18 1006.54 1006.82 1007.26
1003.42 1001.82 1000.46 999.58 999.30 1000.14 1000.86 1002.02 1003.46 1002.98 1003.74 1004.46 1006.30 1009.22 1006.90 1006.14 1006.22 1006.14 1006.42 1007.74 1003.42 999.06 999.02 998.62 997.74 997.46 997.74 998.14 998.74 998.66 998.30 998.18 998.02 997.78 997.22 997.14 997.46 997.74 997.94 998.06 998.14 998.38 998.66 998.86 999.22 999.70 1000.18 1000.58 1000.90 1001.30 1001.82 1002.26 1002.62 1002.94 1003.30 1003.70 1004.26 1004.58 1004.74 1005.14 1005.54 1006.18 1006.78
1001.70 1000.62 1000.46 1000.38 1000.26 1000.42 1001.66 1001.54 1001.26 1002.62 1003.94 1003.38 1004.02 1004.38 1005.02 1005.90 1006.30 1006.90 1007.10 1007.62 1003.34 999.14 998.98 998.38 997.34 996.82 996.70 997.50 998.42 997.54 997.74 997.78 997.58 997.42 997.26 997.14 997.22 997.06 997.10 997.38 997.70 997.94 998.18 998.62 999.34 999.94 1000.22 1000.46 1000.74 1001.02 1001.22 1001.50 1001.86 1002.26 1002.62 1003.10 1003.66 1003.78 1004.22 1004.70 1005.30 1005.94 1006.38
1004.18 1003.30 1001.86 1001.58 1000.66 1001.18 1001.98 1002.14 1001.58 1001.46 1001.74 1002.06 1002.46 1002.90 1005.78 1005.50 1005.06 1004.86 1006.78 1007.22 1003.78 999.06 998.86 999.38 999.42 998.94 998.42 997.46 997.46 998.18 997.74 997.50 997.50 997.34 997.10 996.98 996.90 997.06 997.54 997.66 997.70 997.90 998.42 998.94 999.14 999.14 999.46 999.70 999.98 1000.34 1000.70 1001.06 1001.38 1001.74 1002.10 1002.58 1002.74 1003.02 1003.62 1004.10 1004.82 1005.30 1005.74
1008.14 1008.06 1007.06 1005.98 1004.74 1003.18 1002.26 1001.06 1001.14 1001.14 1001.50 1002.46 1003.78 1004.94 1005.22 1006.34 1004.38 1004.30 1004.98 1004.06 1001.66 999.02 999.38 999.22 999.42 999.38 999.10 998.14 998.14 998.30 997.94 997.42 997.14 997.14 997.10 997.10 997.10 997.10 997.10 997.38 997.74 998.02 997.86 997.86 998.26 998.62 998.94 999.26 999.50 999.86 1000.18 1000.50 1000.86 1001.18 1001.42 1001.46 1001.94 1002.62 1003.18 1003.62 1004.14 1004.78 1005.26
1007.26 1007.10 1007.10 1005.54 1006.06 1005.38 1003.22 1001.74 1001.50 1001.46 1001.18 1000.86 1001.58 1002.38 1004.30 1004.90 1004.82 1004.38 1002.62 1002.14 1001.30 1000.62 999.42 999.30 998.42 999.10 998.94 997.62 997.22 997.22 997.02 997.10 997.18 997.06 996.78 996.66 996.54 996.46 996.58 996.70 996.78 996.86 997.42 997.70 997.70 997.90 998.18 998.54 998.94 999.30 999.66 1000.02 1000.34 1000.70 1000.98 1001.06 1001.38 1001.98 1002.50 1003.06 1003.62 1004.26 1004.74
1007.86 1007.42 1007.30 1005.94 1006.02 1006.94 1005.90 1004.62 1001.70 1000.74 1001.02 1001.10 1001.74 1002.70 1002.26 1001.62 1003.94 1005.02 1001.66 1001.22 1001.46 1000.58 999.26 998.46 997.98 998.10 998.46 997.86 997.22 997.14 997.10 996.06 996.46 996.94 997.34 997.38 997.14 996.98 996.94 997.06 997.14 997.22 996.98 996.94 997.26 997.50 997.82 998.18 998.42 998.78 998.98 999.18 999.54 999.98 1000.38 1000.66 1001.06 1001.62 1002.10 1002.70 1003.30 1003.82 1004.30
1007.74 1007.38 1006.86 1006.10 1005.62 1005.58 1004.90 1003.78 1002.74 1001.50 1000.30 1000.70 1001.34 1000.18 1001.10 1000.30 1002.14 1001.86 1000.78 1001.18 1001.50 1000.14 998.74 997.46 996.82 996.18 996.14 996.06 995.78 995.54 995.66 996.46 996.70 996.58 996.46 996.62 996.62 996.42 996.58 996.50 996.50 996.50 996.70 996.70 996.82 997.06 997.26 997.54 998.10 998.38 998.70 998.98 999.26 999.58 999.78 1000.22 1000.58 1000.98 1001.30 1002.06 1002.70 1003.18 1003.66
1007.74 1006.98 1006.54 1005.66 1005.58 1005.02 1004.46 1003.58 1002.58 1001.30 1000.30 999.70 999.26 999.50 999.98 999.82 999.46 999.46 999.90 1000.38 1000.18 998.78 997.78 996.74 996.02 995.30 995.18 995.46 996.58 996.66 996.18 995.38 995.14 995.54 995.78 995.58 995.78 996.30 996.34 996.18 996.02 995.86 995.78 995.94 996.18 996.46 996.90 997.26 997.54 997.94 998.30 998.58 998.82 999.10 999.46 999.78 1000.22 1000.42 1001.06 1001.70 1002.14 1002.62 1003.02
1007.82 1006.70 1005.82 1005.38 1005.54 1005.42 1004.98 1003.18 1002.18 1001.02 999.74 998.82 998.34 998.86 999.14 999.94 999.90 999.46 1000.10 1000.98 1000.18 998.66 996.82 995.66 995.30 997.02 998.14 997.62 996.42 995.82 995.78 995.62 996.22 996.42 995.94 995.78 995.90 995.94 995.94 995.94 995.90 995.66 995.50 995.54 995.86 996.26 996.54 996.78 996.94 997.22 997.50 997.74 998.02 998.38 998.78 999.26 999.62 999.82 1000.34 1001.06 1001.62 1001.98 1002.18
1008.14 1006.50 1006.38 1005.94 1005.06 1004.66 1004.22 1002.98 1001.66 1000.74 1000.22 1000.10 998.90 999.42 998.46 999.82 1000.34 1000.18 1000.30 1001.18 1001.02 998.78 997.46 997.22 996.74 996.94 996.54 996.02 995.30 995.90 996.46 996.06 996.22 996.14 995.66 995.34 995.06 995.18 995.26 995.26 995.26 995.34 995.38 995.58 995.78 995.78 995.78 995.90 996.18 996.54 997.02 997.34 997.86 998.22 998.38 998.74 998.94 999.38 999.98 1000.46 1000.94 1001.18 1001.18
1008.58 1006.58 1006.66 1006.50 1005.66 1004.34 1002.42 1000.34 999.26 999.78 999.46 998.78 998.18 997.62 997.58 997.42 997.94 999.98 1000.42 999.18 998.02 997.30 996.78 997.46 996.74 996.54 996.42 996.22 996.26 996.66 996.22 996.46 996.66 995.62 994.38 994.26 994.50 995.42 995.42 995.34 995.18 994.94 994.86 994.82 994.86 994.82 994.94 995.26 995.54 995.54 995.70 996.58 997.18 997.22 997.74 997.70 998.34 999.18 999.54 999.86 1000.22 1000.58 1000.90
1008.02 1006.66 1006.78 1006.34 1006.54 1005.98 1001.50 998.50 998.42 997.34 998.26 998.46 999.30 998.62 997.66 997.26 996.82 996.30 996.02 996.50 996.06 996.10 996.94 997.18 996.42 996.02 995.94 995.78 997.02 997.34 997.06 996.50 996.54 996.62 996.18 995.42 995.14 995.02 994.90 994.70 994.66 994.54 994.58 994.66 994.66 994.58 994.54 994.46 994.42 994.42 994.90 995.42 995.58 995.86 996.46 997.42 998.30 998.66 999.10 999.42 999.74 1000.10 1000.54
1008.42 1006.98 1006.78 1006.38 1006.06 1003.10 999.06 998.86 998.10 998.66 996.90 996.54 997.18 996.66 996.30 996.22 996.02 995.50 995.74 995.70 995.82 995.46 995.34 995.34 994.78 995.30 996.38 996.90 997.26 997.70 997.62 997.82 997.90 997.42 996.62 995.94 995.66 995.34 995.06 994.50 994.22 994.26 994.22 994.22 994.46 994.82 994.70 994.42 994.42 994.82 995.30 995.26 995.74 996.58 996.98 997.42 997.58 998.14 998.58 998.98 999.38 999.78 1000.22
1007.30 1007.74 1007.46 1007.42 1003.38 1000.34 1000.10 999.02 999.26 998.90 996.50 997.14 996.70 996.74 995.50 995.34 995.46 995.78 995.94 995.14 994.58 994.54 994.98 995.30 995.74 995.50 996.90 997.42 997.38 997.30 997.38 997.46 997.58 997.50 997.18 996.78 996.42 995.78 995.54 995.34 994.58 993.98 993.66 993.74 993.90 994.02 994.14 994.66 994.86 994.82 994.86 994.98 995.70 996.14 996.34 996.82 997.26 997.58 997.98 998.54 998.98 999.42 999.94
1008.10 1007.02 1006.66 1006.18 1003.10 1002.06 999.82 999.78 1000.98 1001.78 1001.78 1002.34 1002.34 1001.10 996.62 994.78 995.34 995.58 995.70 995.30 994.70 994.70 995.38 995.90 996.78 997.22 996.98 996.74 997.42 997.22 997.14 997.18 997.14 997.26 997.22 996.98 996.58 996.22 995.86 995.58 995.06 994.58 993.98 993.46 993.14 993.42 993.82 994.06 994.50 994.74 994.98 995.38 995.86 996.34 996.70 996.86 997.22 997.66 998.06 998.50 998.74 998.98 999.18
1006.30 1006.78 1007.34 1006.02 1005.14 1005.14 1001.30 1002.02 1001.50 1000.98 1000.86 1001.14 1001.54 1002.18 999.22 995.14 994.94 994.30 994.30 994.98 994.58 995.46 996.38 996.90 997.10 996.86 996.50 997.70 997.58 997.14 997.34 997.10 997.10 996.98 997.02 996.78 996.46 996.06 995.82 995.34 994.98 994.66 994.14 993.78 993.46 993.34 993.54 993.70 993.86 994.34 994.70 995.10 995.66 996.18 996.66 996.98 997.42 997.78 998.02 998.06 997.94 998.22 998.46
1006.70 1006.90 1007.10 1006.42 1005.66 1002.66 1001.50 1002.42 1001.34 1000.50 1000.46 1000.30 1001.02 1001.34 1000.06 995.06 994.70 995.70 994.86 994.06 994.74 995.06 995.42 996.94 997.18 996.58 997.54 997.74 996.74 997.14 997.30 997.06 996.98 997.10 996.94 996.82 996.50 996.14 995.82 995.50 995.06 994.62 994.30 993.98 993.70 993.62 993.74 994.02 994.10 994.06 994.30 994.78 995.42 995.98 996.26 996.50 996.74 997.18 997.34 997.18 997.38 997.62 997.66
1005.54 1005.78 1006.10 1006.06 1004.38 1002.70 1001.46 1001.70 1000.70 999.98 999.30 1000.10 999.94 1001.62 998.62 996.42 996.86 995.18 995.38 994.82 994.58 995.22 995.30 995.86 995.94 995.66 997.22 997.18 996.18 997.06 997.06 997.02 996.94 997.02 997.06 996.90 996.62 996.22 995.78 995.30 994.90 994.62 994.10 993.54 993.94 994.30 994.50 994.50 994.22 994.14 994.26 994.62 995.10 995.46 995.74 995.90 996.38 996.42 996.30 996.34 996.50 996.58 996.94
1004.62 1004.98 1005.02 1003.98 1002.94 1000.78 1001.58 1001.14 1000.42 999.42 998.78 998.70 1000.26 1000.14 997.94 998.38 997.86 997.18 995.82 994.42 994.30 994.26 995.18 995.26 995.34 995.18 995.26 995.26 996.34 996.82 996.86 997.02 996.98 996.86 996.90 996.82 996.66 996.54 996.22 995.90 995.46 995.10 994.82 994.86 995.18 995.30 995.30 994.94 994.46 994.30 994.42 994.86 995.26 995.46 995.74 996.14 996.02 995.26 994.86 995.26 996.02 996.66 997.14
1004.34 1004.34 1005.02 1004.30 1002.58 1001.26 1001.50 1000.42 1000.14 999.38 999.38 1000.30 999.66 998.66 999.46 998.94 997.94 996.58 996.66 995.58 994.38 994.50 994.34 994.58 994.94 996.22 996.38 996.26 996.38 996.74 996.94 997.06 996.98 996.90 996.90 996.78 996.66 996.50 996.30 996.06 995.74 995.42 995.30 995.38 995.38 995.30 995.30 995.26 994.98 994.70 994.66 994.90 995.34 995.58 995.90 995.98 995.46 995.26 995.82 996.18 996.34 996.62 996.82
1002.74 1003.02 1004.34 1004.22 1005.10 1001.30 1000.98 1000.54 1000.10 1000.22 1001.38 1001.02 1001.02 1000.10 998.66 998.26 997.34 997.06 996.58 996.22 995.10 994.34 995.34 995.86 995.90 996.10 996.42 996.50 996.70 996.78 996.90 996.86 996.90 996.74 996.74 996.74 996.70 996.58 996.30 996.02 995.70 995.46 995.50 995.54 995.54 995.54 995.38 995.26 995.38 995.30 995.10 995.38 995.54 995.54 995.70 995.74 995.70 995.78 995.86 995.98 996.18 996.46 996.70
1002.78 1002.90 1003.30 1002.86 1000.94 1001.70 1000.74 1000.14 1001.58 1001.74 1001.66 1000.98 1000.50 1000.50 999.70 997.94 997.46 997.46 997.10 996.54 996.14 995.22 995.02 995.46 995.94 996.22 996.38 996.78 996.78 996.82 996.82 996.78 996.74 996.62 996.50 996.50 996.46 996.34 996.18 996.02 995.90 995.70 995.78 995.82 995.82 995.82 995.74 995.70 995.66 995.74 995.66 995.78 995.98 996.14 996.38 996.30 995.94 995.70 995.62 995.74 995.94 996.22 996.38
999.50 1000.10 999.82 1000.70 1000.74 1000.70 1000.46 1000.58 1000.94 1000.78 1000.54 1000.42 1000.26 1000.10 999.62 998.98 998.42 997.82 997.30 997.10 996.94 996.26 995.86 995.86 995.90 996.22 996.50 996.70 996.86 996.86 996.86 996.74 996.70 996.66 996.54 996.50 996.54 996.50 996.42 996.30 996.06 995.98 996.18 996.42 996.38 996.38 996.34 996.26 996.18 996.18 996.22 996.26 996.26 996.46 996.58 996.38 996.06 995.98 995.94 995.82 995.98 996.18 996.26
999.50 999.26 998.98 999.74 1000.14 1000.34 1000.54 1000.26 999.98 1000.02 1000.22 1000.06 1000.06 1000.02 999.38 998.74 998.50 998.10 997.90 997.38 997.34 997.06 996.54 996.38 996.42 996.50 996.66 996.78 996.90 996.86 996.78 996.74 996.70 996.58 996.46 996.42 996.46 996.54 996.46 996.34 996.18 996.22 996.30 996.54 996.78 997.06 997.10 996.94 996.82 996.66 996.62 996.66 996.90 997.02 996.74 996.50 996.18 996.02 995.94 996.10 996.26 996.26 996.22
999.78 1000.26 999.74 999.98 1000.34 1000.18 1000.02 999.94 999.58 999.38 999.42 1000.06 1000.18 999.94 999.14 998.90 998.50 997.94 997.62 997.74 997.78 997.46 996.86 996.78 996.74 996.94 996.90 996.98 997.02 996.94 996.90 996.86 996.82 996.70 996.62 996.58 996.54 996.50 996.54 996.62 996.46 996.38 996.34 996.42 996.62 996.78 997.06 997.14 997.14 997.10 997.06 997.02 997.06 996.94 996.82 996.58 996.42 996.14 995.98 996.06 996.22 996.30 996.46
1000.34 999.42 999.54 999.62 999.66 999.66 999.34 999.22 999.22 999.94 999.78 999.94 1000.10 999.86 999.14 999.14 998.66 997.94 997.78 997.82 998.18 998.10 997.86 997.42 997.02 997.06 997.06 997.06 997.06 997.02 996.98 996.98 996.94 996.94 996.90 996.90 996.74 996.58 996.38 996.14 995.90 995.90 996.06 996.42 996.74 996.94 997.14 997.14 997.02 996.94 996.94 997.02 997.02 997.02 996.90 996.70 996.54 996.42 996.22 996.18 996.26 996.42 996.50
999.90 999.46 999.42 999.30 998.98 999.02 999.34 999.46 1000.06 999.98 1000.26 1000.30 1000.02 1000.14 999.98 999.50 998.98 998.22 997.46 997.62 998.34 998.74 998.66 997.98 997.46 997.22 997.38 997.18 997.10 997.18 997.30 997.38 997.46 997.50 997.54 997.50 997.46 997.38 997.22 997.02 996.74 996.86 996.86 996.90 996.90 996.94 997.06 996.98 996.90 996.86 996.90 996.82 996.78 996.74 996.78 996.70 996.54 996.58 996.58 996.50 996.42 996.42 996.46
1000.10 999.50 999.18 998.26 998.58 1000.02 999.98 999.86 999.94 999.94 1000.50 1000.22 999.94 1000.58 1000.90 1000.70 999.82 998.34 997.42 997.50 998.02 998.78 999.14 998.86 998.14 997.70 997.62 997.50 997.46 997.74 997.82 997.90 997.90 997.90 997.94 997.94 997.94 997.94 997.78 997.66 997.58 997.58 997.58 997.66 997.70 997.74 997.70 997.50 997.34 997.26 997.10 996.94 996.74 996.62 996.58 996.58 996.54 996.58 996.66 996.66 996.70 996.86 996.90
999.62 998.34 997.90 997.70 997.70 999.02 999.50 999.78 999.74 1000.10 1000.62 1000.30 1000.22 1001.06 1001.54 1001.26 1000.66 999.14 997.66 997.18 998.02 999.46 1000.10 999.78 999.14 998.54 998.18 998.06 997.78 997.74 997.82 997.94 997.94 997.98 998.06 998.30 998.46 998.50 998.34 998.30 998.34 998.34 998.34 998.22 998.30 998.30 998.26 998.06 997.94 997.78 997.62 997.38 997.14 996.94 996.82 996.82 996.82 996.82 996.74 996.86 997.14 997.30 997.30
999.86 998.06 997.90 997.50 997.22 998.70 999.58 999.58 999.50 1000.26 1000.26 999.98 1000.22 1000.66 1001.22 1001.02 1000.50 999.22 998.30 997.74 997.86 999.74 1001.06 1000.82 999.74 998.74 998.06 997.82 997.70 997.94 998.10 998.14 998.22 998.30 998.30 998.38 998.50 998.62 998.66 998.70 998.74 998.74 998.74 998.74 998.70 998.66 998.46 998.30 998.26 998.14 998.02 997.82 997.62 997.38 997.22 997.10 997.10 997.14 997.22 997.34 997.58 997.70 997.70
999.42 998.10 997.62 997.70 997.58 998.38 998.82 998.94 999.34 999.86 999.70 999.62 1000.62 1001.34 1001.22 1000.86 1000.22 999.14 998.70 998.94 999.06 999.90 1001.18 1001.14 999.86 998.70 998.30 998.30 998.22 998.30 998.42 998.50 998.38 998.38 998.42 998.46 998.54 998.66 998.82 998.82 998.98 998.98 998.98 998.90 998.82 998.74 998.62 998.50 998.38 998.30 998.18 998.02 997.78 997.62 997.54 997.46 997.50 997.62 997.70 997.78 997.90 997.98 998.02
Wind_Speed
12 14 8 6 10 8 5 10 12 14 7 5 4 3 2 1 2 8 2 4 6 7 6 6 6 6 12 12 14 15 16 17 16 15 12 14 16 17 17 19 18 20 18 17 18 18 17 17 16 17 18 18 20 18 17 18 18 17 18 19 19 17 16
9 6 13 8 11 7 7 8 10 3 3 5 6 6 1 3 6 6 1 5 4 2 10 2 5 6 12 10 14 16 17 17 15 14 13 14 16 19 21 21 19 20 20 21 20 18 19 19 20 20 20 19 18 18 18 19 18 19 18 18 18 17 17
8 3 6 4 6 8 11 9 6 9 2 8 2 2 10 5 7 3 4 2 6 9 7 1 7 7 11 11 11 11 14 14 15 15 16 15 15 13 12 16 16 16 17 19 19 20 20 20 20 20 20 19 17 16 17 18 20 21 21 18 17 15 15
5 6 9 10 9 6 2 7 8 4 5 3 6 8 2 4 7 2 5 1 11 7 7 8 9 11 13 12 11 14 16 17 16 15 16 16 14 14 17 17 18 19 20 21 22 21 21 20 19 18 18 16 18 18 18 18 17 16 14 15 15 16 16
5 6 5 12 12 13 8 5 6 1 1 2 5 1 8 6 3 5 3 7 6 6 7 10 10 12 13 13 14 14 15 16 17 17 18 15 15 15 16 17 18 19 19 19 20 20 20 19 18 17 17 18 19 18 18 18 18 18 17 17 17 16 15
6 1 7 13 14 13 12 12 12 10 8 4 7 9 1 3 6 5 3 14 4 5 4 9 10 11 12 12 11 11 11 12 12 13 14 16 14 13 14 15 16 17 18 18 19 18 16 15 16 16 16 16 17 17 17 18 17 16 18 17 16 16 14
3 6 9 14 18 15 13 13 11 11 5 5 4 6 8 1 4 5 3 1 15 6 8 10 10 9 10 11 10 12 12 13 13 14 16 12 10 12 14 16 16 17 18 18 19 20 19 19 19 18 17 17 17 19 19 17 17 19 19 19 17 15 15
4 5 4 6 5 9 11 9 7 10 13 11 11 9 5 7 2 4 3 7 7 2 6 11 11 9 10 7 7 12 10 9 11 12 13 13 12 14 13 12 12 14 14 14 12 14 16 16 16 17 17 17 17 17 18 17 19 20 18 16 15 15 15
4 5 6 5 2 2 4 7 10 10 9 12 6 2 3 4 9 9 7 18 2 2 1 4 4 3 5 8 10 9 9 7 7 9 10 10 10 8 6 9 12 11 11 12 15 16 17 17 17 16 17 17 17 17 16 17 18 19 17 15 15 16 17
11 10 11 8 5 7 2 3 9 13 16 14 8 14 4 10 5 9 7 10 5 6 3 5 7 4 6 9 6 3 7 7 8 7 8 6 6 8 9 9 9 13 15 15 15 15 14 15 16 16 16 16 16 16 18 18 18 16 16 15 16 16 16
4 2 3 3 4 7 6 5 7 10 12 15 15 7 8 15 4 9 11 4 1 2 4 6 6 5 9 9 6 7 8 9 9 7 7 8 9 11 13 14 15 14 12 15 17 17 17 17 16 15 16 17 16 16 18 18 16 16 16 16 16 16 16
2 4 8 15 9 7 10 9 10 11 13 14 17 16 17 8 6 15 8 7 6 7 4 6 6 7 6 7 7 7 7 8 7 5 4 4 4 5 4 6 9 13 16 16 16 16 16 16 16 16 16 17 18 18 18 17 15 15 13 15 15 16 16
6 7 11 13 11 6 8 11 11 12 15 15 20 23 7 13 14 20 9 6 6 6 8 9 10 10 11 12 13 11 6 3 4 6 7 6 8 8 10 12 13 15 15 15 16 16 17 16 17 17 16 15 14 14 14 14 15 16 16 16 17 17 17
8 9 9 8 7 7 8 11 13 14 15 19 22 19 13 16 16 11 9 10 13 9 8 9 11 11 11 5 2 0 2 6 7 5 6 8 9 9 11 12 14 15 17 16 16 16 15 16 17 17 16 15 16 16 16 15 15 15 14 16 17 17 18
7 10 7 5 9 9 11 12 12 15 17 20 20 15 14 11 12 12 6 7 11 8 6 9 9 1 2 2 3 6 7 6 6 5 8 9 9 9 10 9 11 13 14 14 14 15 16 17 18 17 17 17 16 17 15 15 16 15 16 16 16 17 19
7 5 7 13 14 15 12 13 14 15 16 17 16 14 9 9 12 8 10 10 10 7 7 7 9 5 5 7 8 5 5 6 6 7 10 9 9 10 10 10 11 13 13 13 14 17 18 19 19 17 16 15 14 15 15 16 16 14 15 16 18 19 19
3 9 5 11 14 11 11 19 18 13 9 9 7 9 8 16 12 11 15 16 5 10 8 6 10 9 8 7 5 3 4 5 6 8 9 9 8 5 5 7 10 13 14 15 17 18 17 17 17 19 19 16 17 17 16 17 13 14 17 17 18 18 16
3 11 11 7 4 5 17 1 6 6 14 12 10 11 9 8 13 14 10 11 9 10 7 10 11 12 9 7 3 3 2 3 7 8 9 9 7 6 6 8 10 9 8 8 11 14 15 17 19 19 17 19 19 18 16 12 13 15 16 16 16 17 15
3 8 8 3 7 15 2 16 14 9 8 10 14 15 12 10 14 12 8 6 8 11 13 15 16 6 3 4 5 1 0 1 2 6 7 5 5 6 5 6 7 7 8 7 6 7 11 14 12 10 10 13 9 7 10 14 15 15 16 16 15 15 15
1 3 1 3 10 5 14 15 4 11 1 3 6 15 17 14 13 12 12 10 11 11 12 8 4 9 7 5 2 3 1 2 3 5 6 8 7 7 5 5 6 6 9 11 11 11 5 2 5 8 12 11 11 12 12 14 14 15 16 15 15 13 14
3 5 6 9 11 17 11 4 7 8 4 6 3 5 12 7 9 9 9 10 9 7 5 5 6 7 5 4 2 1 4 3 3 4 5 7 7 6 7 5 6 6 6 7 11 8 8 9 8 10 6 7 8 8 10 12 12 12 12 14 14 15 16
6 5 6 5 3 4 4 3 3 3 4 5 7 5 10 6 8 10 13 12 10 5 3 7 9 6 7 5 1 1 3 4 5 5 5 6 5 6 7 6 5 4 4 4 3 7 9 11 11 8 9 10 10 11 10 9 10 11 13 16 17 16 16
4 4 5 4 4 7 2 8 10 10 5 3 2 3 10 5 7 4 7 13 10 11 12 10 8 8 9 8 6 3 2 3 4 4 6 7 7 7 7 9 9 9 6 2 3 4 6 8 7 9 10 12 12 12 13 14 14 15 16 17 15 16 17
6 7 7 9 3 6 3 10 11 13 9 3 2 4 8 5 9 4 7 10 11 11 13 15 12 13 9 9 8 4 3 3 3 4 5 7 8 8 9 10 10 9 10 11 11 8 3 1 3 8 11 12 13 13 14 14 15 16 18 16 16 16 14
10 11 6 5 6 3 6 11 12 11 10 1 7 12 2 13 15 12 7 11 12 13 13 13 13 6 1 5 8 7 5 4 5 5 5 4 5 7 9 11 9 9 11 12 10 9 6 7 2 4 7 8 10 8 8 10 15 17 17 14 13 10 9
11 8 9 9 6 3 3 8 5 8 2 4 8 4 11 13 16 9 9 8 7 8 13 7 4 8 8 9 7 7 5 5 6 6 6 6 5 6 7 10 9 9 11 12 11 11 11 10 9 3 3 8 6 7 7 11 14 10 2 3 5 7 10
6 6 6 4 7 1 6 8 1 9 2 5 7 14 16 13 10 9 9 5 3 10 10 9 12 11 10 9 8 7 6 5 6 8 8 9 8 9 9 11 12 11 10 12 12 11 10 12 11 9 5 1 3 6 9 6 2 1 3 6 8 9 10
7 8 10 6 2 2 5 4 3 4 2 7 10 10 13 10 7 9 9 6 2 6 12 16 13 11 12 9 9 8 7 7 7 9 9 8 8 9 10 11 11 12 11 10 10 10 10 10 12 11 9 6 5 2 2 6 6 3 3 6 7 9 10
6 7 4 5 6 4 2 5 4 2 4 7 9 10 8 6 8 9 6 4 4 4 9 11 12 12 9 10 8 8 8 8 8 8 9 9 9 10 11 12 11 11 11 11 10 11 11 12 10 10 9 8 8 7 6 5 5 5 4 3 6 8 9
0 3 4 10 4 5 3 2 5 7 7 8 9 10 6 8 7 5 6 5 4 3 3 7 9 9 9 10 10 9 8 8 8 8 9 10 9 9 10 11 11 10 10 11 11 12 11 10 10 9 7 7 7 4 5 4 3 2 3 2 4 6 7
5 5 6 6 8 4 3 4 5 7 9 7 8 8 7 7 7 7 10 8 7 6 4 6 10 9 8 10 10 9 8 9 9 11 11 11 11 11 12 10 9 9 10 11 12 12 11 9 7 7 7 6 5 5 6 5 4 1 3 2 1 1 4
7 3 8 8 6 5 5 6 9 8 8 7 9 8 6 6 6 8 9 9 9 7 6 5 10 12 9 9 8 8 8 9 11 12 12 12 10 11 11 11 12 12 13 12 13 12 10 8 6 6 7 6 6 5 5 5 5 4 1 2 2 1 1
2 2 6 9 6 9 8 9 6 6 6 4 7 11 9 4 7 8 11 12 9 7 6 5 7 12 9 9 9 10 8 9 9 9 9 9 8 9 10 10 12 11 11 12 12 12 12 9 9 8 9 8 8 8 6 5 4 3 1 1 1 2 2
11 8 9 7 8 2 3 8 7 10 6 5 7 7 9 10 4 8 13 14 12 10 9 7 5 10 9 9 10 11 10 11 10 10 10 10 10 10 9 9 10 10 10 9 9 9 8 9 9 9 10 10 9 8 8 7 5 5 5 4 6 6 5
7 5 8 3 10 8 6 7 8 8 2 3 7 6 6 6 6 4 11 16 14 11 12 9 3 7 9 10 10 12 12 11 10 11 11 11 9 9 9 10 10 10 9 10 9 9 7 7 8 8 9 9 9 9 9 9 8 7 6 6 6 6 6
13 4 6 5 9 8 7 8 11 7 2 4 6 7 5 7 7 7 12 13 15 9 7 9 4 4 9 10 12 13 12 11 12 11 11 10 9 9 9 9 9 9 9 9 9 8 6 6 7 7 8 8 8 7 8 8 8 8 8 7 7 6 6
7 4 3 5 13 13 9 9 9 6 3 7 4 3 3 7 9 11 14 12 11 8 4 7 4 6 10 10 10 11 11 9 10 12 11 11 11 11 9 10 9 9 8 7 6 6 7 7 8 8 8 8 7 7 7 7 7 8 7 7 6 6 6
Wind_Direction
176 193 159 192 150 197 204 129 198 214 98 141 249 283 197 127 6 259 201 297 295 296 319 232 231 211 211 206 214 215 221 225 224 224 211 204 204 204 201 204 204 204 202 201 203 201 201 201 199 200 200 197 198 196 196 198 200 197 196 197 198 198 199
243 199 175 175 186 131 123 186 213 64 102 124 158 227 339 225 229 264 21 203 300 240 259 286 197 197 219 210 211 212 218 223 225 227 217 208 204 204 203 203 203 201 199 200 201 202 200 199 198 200 202 199 198 197 196 197 197 197 199 198 198 198 198
194 120 141 184 218 160 172 201 152 156 206 198 262 140 235 217 242 281 279 239 238 199 234 318 188 211 225 217 217 218 220 222 224 226 225 216 212 205 201 204 203 202 202 203 202 203 202 201 200 201 200 196 196 197 200 199 199 200 197 196 197 198 198
168 158 153 205 201 262 247 86 170 177 125 187 159 198 152 139 250 234 288 159 251 195 204 186 208 207 217 216 210 210 213 215 217 221 225 218 207 200 201 200 200 201 202 201 200 201 201 200 200 202 199 196 197 198 198 200 204 202 197 195 195 198 200
120 186 191 200 187 191 209 192 188 205 218 235 156 173 190 194 183 207 232 266 263 253 205 176 205 211 216 209 210 212 214 213 213 216 220 217 209 204 203 201 200 200 202 202 203 204 203 201 200 198 193 194 198 197 198 200 199 197 195 197 195 200 197
212 252 192 193 195 193 199 192 207 197 165 163 170 249 353 151 181 226 147 251 268 263 170 189 193 215 217 220 210 222 227 225 217 220 226 222 213 207 205 203 201 200 201 201 203 203 202 200 200 197 195 197 199 197 200 199 200 198 197 196 197 198 195
202 212 212 203 201 195 198 179 210 185 182 116 160 213 225 127 243 101 175 258 263 221 187 196 198 206 217 218 203 218 222 221 217 220 227 229 210 208 203 203 201 199 200 200 197 197 197 197 198 195 193 195 197 198 199 198 197 200 198 198 196 193 194
276 287 313 320 289 214 211 219 191 167 198 198 212 220 178 181 209 201 237 236 263 272 191 201 199 207 215 224 199 213 227 227 223 217 223 221 214 217 208 203 198 200 201 198 195 197 200 200 198 195 194 196 197 198 198 196 199 201 198 196 191 191 195
232 265 333 305 1 162 224 203 209 200 191 198 206 107 100 201 201 180 150 242 223 271 263 243 280 289 249 239 233 213 231 245 232 223 227 225 223 217 193 194 195 194 192 190 197 199 199 198 197 195 195 196 196 198 195 197 203 200 196 191 189 193 195
210 205 212 216 235 231 253 244 203 205 198 195 172 225 162 224 213 173 206 248 252 275 325 230 237 253 280 271 271 270 222 236 242 237 235 232 209 200 192 190 180 189 197 197 197 198 197 197 195 194 194 196 197 197 198 199 200 193 194 189 192 192 194
254 359 289 242 2 314 244 212 192 214 210 201 206 212 205 220 175 205 227 171 222 260 212 224 233 223 232 252 254 236 234 235 240 239 227 204 202 199 194 192 193 193 194 198 198 196 196 194 193 193 194 195 196 197 201 201 198 192 190 188 190 191 193
316 310 295 290 291 270 284 290 232 201 203 206 210 207 225 115 131 244 220 194 181 239 234 219 230 240 253 260 258 261 263 242 233 262 287 288 259 254 224 208 196 194 200 201 197 196 193 192 192 195 196 195 195 195 199 198 194 191 188 188 189 192 193
317 285 276 285 291 247 257 259 260 230 208 203 212 222 186 163 210 233 222 173 184 235 228 224 216 204 210 218 224 225 235 262 249 242 247 234 220 215 205 207 200 198 200 201 199 194 193 190 190 193 195 197 198 201 201 194 191 192 186 185 189 192 193
314 302 292 286 279 301 283 262 255 247 229 217 216 219 204 200 225 229 215 179 197 203 223 225 230 217 208 214 195 106 244 240 246 255 251 244 237 217 212 211 204 203 203 200 197 192 190 189 191 192 194 195 196 196 195 191 192 193 181 190 191 192 197
315 304 304 301 320 307 291 283 267 247 238 235 225 217 213 207 241 235 218 179 223 239 221 227 247 2 349 314 253 213 226 252 270 269 253 246 242 236 222 214 210 210 209 202 194 189 191 191 192 191 194 196 196 197 194 190 193 188 183 189 191 194 202
313 299 335 324 320 311 278 263 259 247 237 235 233 228 205 187 214 216 240 235 231 260 265 265 269 293 272 244 251 265 272 267 249 243 255 252 243 237 229 215 207 208 208 201 192 194 194 193 192 191 193 195 192 197 192 193 193 182 186 189 193 198 203
251 282 316 322 317 320 297 255 243 238 253 251 260 249 203 207 186 204 219 233 196 212 210 220 258 242 245 251 246 257 280 270 256 249 245 250 260 257 243 230 218 212 206 201 198 197 195 193 192 195 191 186 193 196 191 196 180 180 189 192 196 201 199
266 298 314 307 315 258 239 12 324 185 218 220 231 246 227 217 188 223 208 218 200 202 180 192 235 233 227 207 213 194 189 287 307 290 267 259 265 257 226 225 224 218 211 214 210 202 196 197 197 197 190 190 197 193 189 173 175 187 189 196 197 200 194
277 290 320 332 227 241 10 331 337 319 249 194 213 235 227 216 223 227 218 223 213 209 198 200 218 204 132 133 124 142 168 202 258 287 298 306 323 297 269 242 228 213 206 202 206 213 213 208 202 188 194 201 186 163 166 177 185 184 192 195 198 197 196
231 348 290 233 238 265 317 305 324 321 336 301 246 235 238 219 211 212 218 210 212 212 212 213 165 142 146 112 109 97 78 80 341 330 317 315 325 326 315 294 271 221 193 195 197 206 199 178 199 199 201 186 174 182 178 183 183 188 189 193 198 193 197
187 210 230 246 303 313 319 359 1 20 352 326 26 275 262 227 186 180 210 228 235 227 216 156 145 136 113 79 56 186 52 17 6 332 305 305 312 316 311 303 284 273 267 214 197 178 172 175 179 199 176 161 176 168 179 186 184 188 188 195 197 195 199
177 213 286 307 332 265 277 164 300 234 263 256 195 172 278 256 223 194 188 209 215 196 130 150 153 144 109 144 200 214 8 27 360 347 329 314 312 332 328 327 329 322 299 290 225 183 176 182 185 160 154 160 161 173 179 175 177 187 194 202 200 197 200
163 190 222 226 217 244 209 320 318 316 303 268 224 150 258 266 191 227 202 196 189 169 160 159 146 141 162 210 220 230 47 44 22 354 344 342 337 340 342 349 346 348 336 288 203 172 170 182 183 169 166 164 169 180 181 182 186 193 203 206 199 198 201
187 180 214 239 206 257 314 324 326 318 321 291 120 213 255 337 331 210 181 210 181 187 168 158 169 161 178 200 211 156 100 82 49 22 353 349 355 356 357 5 5 12 26 55 50 48 46 313 180 174 167 171 181 185 188 186 190 199 204 202 201 205 203
197 202 246 278 287 290 346 334 324 318 323 59 161 220 267 320 316 299 248 210 200 175 164 163 175 230 169 118 110 120 106 107 72 48 29 15 16 21 20 20 12 34 44 54 56 49 24 4 330 173 164 167 185 185 179 192 207 210 204 196 193 193 186
204 195 215 236 258 240 325 314 346 334 332 208 221 304 311 296 298 310 300 251 181 181 166 168 112 126 121 109 110 107 101 94 88 68 51 44 53 47 46 39 38 44 53 51 49 41 32 27 23 6 153 169 169 170 180 205 217 224 225 174 186 190 192
195 174 204 211 246 293 354 302 138 30 50 283 308 309 303 295 305 336 330 285 212 141 118 116 126 124 118 116 112 107 91 77 66 63 55 44 41 40 40 42 41 50 53 48 43 39 29 30 29 25 25 104 169 178 198 222 326 337 195 188 186 191 198
177 176 197 211 147 132 327 65 76 336 308 302 312 312 299 319 355 347 331 326 305 132 132 136 130 125 121 117 120 106 88 77 70 64 64 57 48 47 49 51 50 53 59 54 47 35 31 32 32 30 37 50 46 53 19 353 332 321 192 194 195 198 203
213 190 162 136 150 143 110 95 138 121 348 336 326 307 292 341 348 339 330 4 334 100 115 116 124 123 121 116 110 99 84 75 65 60 56 52 45 44 43 44 48 58 64 61 55 47 38 36 35 35 37 46 38 29 344 340 2 7 342 212 192 206 213
57 27 94 139 142 137 147 136 106 83 28 1 345 318 322 10 340 358 360 358 360 19 41 105 102 99 108 99 92 83 77 68 62 57 54 49 49 50 50 46 44 54 64 68 67 62 53 47 44 41 33 41 45 352 326 320 325 359 36 15 243 227 219
228 188 186 146 152 169 138 132 98 80 63 21 336 318 359 356 355 13 29 13 1 351 29 74 95 83 80 89 81 78 74 65 56 53 51 47 40 38 43 44 53 52 54 49 44 42 43 37 47 51 58 52 35 353 336 325 314 270 105 73 50 310 264
225 211 163 149 141 126 107 73 52 30 35 17 340 327 19 358 5 40 41 34 26 359 64 64 98 95 83 77 74 68 59 57 54 56 53 48 39 33 31 27 31 37 40 40 38 39 37 26 28 35 44 44 36 22 356 336 328 321 9 112 115 89 35
226 73 146 161 118 72 66 73 70 72 31 358 6 337 344 11 45 42 55 48 37 14 35 53 90 95 86 80 80 77 68 63 61 63 61 57 49 45 39 33 35 39 35 34 31 29 23 12 13 21 23 23 17 21 16 357 350 332 15 108 139 141 140
199 187 183 165 123 137 83 73 76 58 5 355 44 0 338 332 351 79 73 56 36 10 338 335 61 94 94 88 88 90 86 84 83 78 73 67 66 63 58 57 54 53 47 44 39 30 16 8 12 15 15 12 11 14 14 14 13 35 18 13 21 26 27
212 204 177 176 119 105 99 121 91 77 350 15 59 60 348 316 313 16 84 89 65 21 342 325 41 100 107 107 103 95 90 83 82 80 79 77 69 62 57 63 56 55 51 53 49 45 28 18 23 20 19 14 12 10 12 15 20 29 38 47 45 37 33
285 251 153 168 122 135 135 124 101 99 90 59 43 42 357 332 341 34 59 65 80 67 328 316 325 79 90 91 91 89 86 85 84 82 80 77 76 72 61 61 61 59 53 49 48 47 35 40 38 29 33 24 21 14 14 16 20 37 44 61 62 55 55
245 259 151 106 106 107 111 101 100 112 82 80 46 15 36 26 11 25 48 45 54 67 351 305 340 50 80 76 78 82 86 81 79 81 77 72 65 61 56 51 48 52 50 46 38 36 36 41 42 35 36 25 24 25 20 26 26 36 35 44 51 47 48